User: anonymous   Login
Location: Newark
(37.9800°N, 91.3000°W)
Time: 14:57:44
(UTC+00:00)
Language:

LightSail 2 - Orbit

View from above orbital plane
View from above orbital plane
View from above satellite
View from above satellite

Ground track
Ground track

The orbit data is extracted from the following two-line orbital elements,

1 44420U 19036AC  19317.46933331  .00005841  00000-0  13181-2 0  9990
2 44420  24.0074  36.6092 0017496 303.7751  56.1173 14.53637256 18680
Epoch (UTC): 13 November 2019 11:15:50
Eccentricity: 0.0017496
inclination: 24.0074°
perigee height: 701 km
apogee height: 726 km
right ascension of ascending node: 36.6092°
argument of perigee: 303.7751°
revolutions per day: 14.53637256
mean anomaly at epoch: 56.1173°
orbit number at epoch: 1868

The dashed part of the orbit path shows where the satellite is in the earth's shadow,  

DLR